This is the latest recevied weather packets stored in our database for station/object W5ADC. If no packets are shown the sender has not sent any weather packets the latest 10 day(s).
| Time | Temp. | Humidity | Pressure | Rain* | Wind** | Luminosity | Snow |
|---|---|---|---|---|---|---|---|
| 1777825805 | 24.44° C | 45% | 1017.4 hPa | 0 mm | - | 691 W/m² | - |
| 1777825503 | 23.89° C | 46% | 1017.6 hPa | 0 mm | - | 682 W/m² | - |
| 1777825200 | 23.89° C | 46% | 1017.5 hPa | 0 mm | - | 669 W/m² | - |
| 1777824896 | 23.89° C | 46% | 1017.6 hPa | 0 mm | - | 658 W/m² | - |
| 1777824593 | 23.89° C | 45% | 1017.5 hPa | 0 mm | - | 648 W/m² | - |
| 1777824290 | 23.33° C | 47% | 1017.6 hPa | 0 mm | - | 631 W/m² | - |
| 1777823985 | 23.89° C | 47% | 1017.6 hPa | 0 mm | - | 620 W/m² | - |
| 1777823682 | 23.89° C | 47% | 1017.5 hPa | 0 mm | - | 608 W/m² | - |
| 1777823379 | 23.33° C | 47% | 1017.6 hPa | 0 mm | - | 593 W/m² | - |
| 1777823077 | 23.33° C | 48% | 1017.5 hPa | 0 mm | - | 581 W/m² | - |
| 1777822775 | 22.78° C | 49% | 1017.5 hPa | 0 mm | - | 566 W/m² | - |
| 1777822472 | 22.78° C | 48% | 1017.7 hPa | 0 mm | - | 553 W/m² | - |
| 1777822170 | 23.33° C | 49% | 1017.6 hPa | 0 mm | - | 538 W/m² | - |
| 1777821867 | 22.78° C | 48% | 1017.8 hPa | 0 mm | - | 524 W/m² | - |
| 1777821564 | 22.22° C | 49% | 1017.6 hPa | 0 mm | - | 511 W/m² | - |
| 1777821262 | 22.78° C | 48% | 1017.6 hPa | 0 mm | - | 496 W/m² | - |
| 1777820959 | 22.22° C | 51% | 1017.5 hPa | 0 mm | - | 480 W/m² | - |
| 1777820655 | 22.22° C | 51% | 1017.5 hPa | 0 mm | - | 468 W/m² | - |
| 1777820351 | 21.67° C | 51% | 1017.5 hPa | 0 mm | - | 451 W/m² | - |
| 1777820050 | 22.22° C | 51% | 1017.6 hPa | 0 mm | - | 435 W/m² | - |
| 1777819746 | 21.67° C | 52% | 1017.6 hPa | 0 mm | - | 420 W/m² | - |
| 1777819444 | 21.11° C | 54% | 1017.5 hPa | 0 mm | - | 404 W/m² | - |
| 1777819142 | 21.11° C | 52% | 1017.5 hPa | 0 mm | - | 390 W/m² | - |
| 1777818838 | 21.11° C | 52% | 1017.5 hPa | 0 mm | - | 375 W/m² | - |
| 1777818534 | 21.11° C | 55% | 1017.4 hPa | 0 mm | - | 358 W/m² | - |
* Rain latest hour (hover to see other rain measurements)
** Current wind speed in m/s (hover to see current wind gust speed)